[[{"header":{"parameterUnit":"m.s-1","parameterCategory":1,"la1":30.2991,"la2":30.254,"lo1":-89.0895,"lo2":-89.0444,"dy":0.0017,"dx":0.0017,"nx":28,"ny":28,"refTime":"2025-07-20T09:00:00:Z","depth":0,"parameterNumber":2,"parameterNumberName":"U-component_of_WINDS"},"data":[0,0,0,0,0,0,0,0,0,0,0,0,0,0,0,0,0,0,0,0,0,0,0,0,0,0,0,0,0,0,0,0,0,0,0,0,0,0,0,0,0,0,0,0,0,0,0,0,0,0,0,0,0,0,0,0,0,0,1.565,1.5651,0,1.5729,1.573,1.5731,1.5781,1.5782,1.5782,1.5782,1.5865,1.5866,1.5868,0,0,0,0,0,0,0,0,0,0,0,0,0,1.5544,1.5546,1.565,1.5651,1.5652,1.5729,1.573,1.5731,1.5781,1.5782,1.5782,1.5782,1.5864,1.5866,1.5869,0,0,0,0,0,0,0,0,0,0,0,0,0,1.5603,1.5546,1.565,1.5686,1.569,1.5728,1.573,1.5731,1.5781,1.5782,1.5782,1.5783,1.5863,1.5866,1.5869,1.5877,0,0,1.5878,1.5879,0,0,0,0,0,0,0,0,1.56,1.5607,1.568,1.5684,1.5688,1.5746,1.5723,1.578,1.5781,1.5747,1.5782,1.5783,1.5825,1.5831,1.5845,1.5881,1.5885,1.5878,1.588,1.5881,1.5882,0,0,0,0,0,0,0,1.5595,1.5604,1.5681,1.5681,1.5686,1.5699,1.5708,1.5734,1.5782,1.575,1.5754,1.5762,1.5827,1.5842,1.5847,1.5886,1.5878,1.588,1.5882,1.5883,1.5933,1.5933,0,0,0,0,0,0,1.5585,1.56,1.5679,1.5683,1.5644,1.5701,1.5711,1.5727,1.5782,1.5791,1.5762,1.5764,1.5837,1.5844,1.585,1.5864,1.5881,1.5883,1.5885,1.5934,1.5933,1.5933,0,0,0,0,0,0,1.5583,1.5592,1.5675,1.5643,1.5654,1.5702,1.572,1.5728,1.5743,1.5791,1.58,1.5768,1.5837,1.5846,1.587,1.5867,1.5885,1.5887,1.5934,1.5934,1.5933,1.5891,0,0,0,0,0,0,1.558,1.5591,1.5594,1.5643,1.5656,1.5694,1.572,1.5729,1.5747,1.5752,1.5799,1.5807,1.5838,1.5866,1.5873,1.5872,1.589,1.5935,1.5934,1.5933,1.5893,1.5889,1.5886,0,0,0,0,0,1.5576,1.5579,1.5594,1.5603,1.5661,1.5693,1.5701,1.5736,1.5747,1.5751,1.5782,1.5806,1.5866,1.5868,1.5876,1.5876,1.5935,1.5934,1.5933,1.5894,1.589,1.5886,0,0,0,0,0,0,1.553,1.5586,1.5603,1.5623,1.5653,1.5702,1.5708,1.573,1.5758,1.5761,1.5804,1.5814,1.5834,1.5857,1.5858,1.5887,1.5904,1.5904,1.5871,1.5867,1.5863,1.5857,1.5892,0,0,0,0,0,1.5522,1.5543,1.5591,1.5604,1.5618,1.566,1.5675,1.57,1.5733,1.5746,1.5779,1.581,1.5837,1.5853,1.588,1.5896,1.5908,1.59,1.5897,1.5894,1.5894,1.5905,1.5902,1.593,1.593,1.593,0,0,1.5506,1.5539,1.555,1.5595,1.5621,1.5643,1.5671,1.5692,1.5708,1.575,1.5774,1.5799,1.5837,1.5857,1.5868,1.5878,1.5888,1.5892,1.589,1.5892,1.5903,1.5901,1.5898,1.593,1.593,1.593,0,0,1.5487,1.5515,1.5528,1.5554,1.5593,1.5621,1.5624,1.567,1.5688,1.5713,1.5745,1.5765,1.5809,1.5835,1.5854,1.5845,1.5868,1.5852,1.5834,1.5844,1.5841,1.584,1.5837,1.5835,1.5852,1.5852,1.5852,0,1.5463,1.5495,1.5532,1.5552,1.5571,1.5609,1.5623,1.5646,1.5692,1.5704,1.5714,1.577,1.5799,1.5825,1.5823,1.5837,1.5842,1.5847,1.5839,1.5837,1.5836,1.5834,1.5833,1.585,1.585,1.5851,1.5851,0,1.5463,1.5485,1.5491,1.5534,1.5554,1.5571,1.561,1.5626,1.5648,1.5675,1.5701,1.5736,1.5771,1.5779,1.5801,1.5809,1.5814,1.583,1.5848,1.5831,1.5829,1.5829,1.5847,1.5848,1.5848,1.5849,0,0,1.5418,1.5481,1.5483,1.5503,1.5548,1.5567,1.5585,1.5618,1.5631,1.5661,1.5678,1.5714,1.573,1.5751,1.5777,1.5786,1.5776,1.5802,1.5803,1.5796,1.5787,1.5774,1.5773,1.5792,1.5792,1.5792,1.5784,0,1.5407,1.5441,1.5475,1.5497,1.5518,1.5555,1.5571,1.5601,1.5626,1.5648,1.5677,1.5702,1.5721,1.5734,1.5744,1.5775,1.5775,1.5776,1.5808,1.5809,1.5798,1.5772,1.5758,1.5749,1.5784,1.5784,1.5784,0,1.5398,1.5426,1.5451,1.5495,1.5505,1.5518,1.5552,1.5572,1.5607,1.5625,1.5648,1.5676,1.5697,1.5712,1.5742,1.5742,1.5757,1.5775,1.5775,1.578,1.5795,1.5776,1.5747,1.5746,1.5783,1.5783,1.5783,0,1.5363,1.5407,1.5428,1.5444,1.5495,1.5504,1.5526,1.5561,1.5579,1.5608,1.562,1.5651,1.5669,1.5693,1.5727,1.5735,1.5754,1.5772,1.577,1.5769,1.5773,1.5772,1.5746,1.5782,1.5782,1.5782,1.5782,0,1.5347,1.5361,1.5413,1.5425,1.5441,1.548,1.5495,1.552,1.5551,1.557,1.5603,1.562,1.5665,1.5687,1.5715,1.5736,1.5743,1.5759,1.5766,1.5756,1.5754,1.5766,1.5768,1.5782,1.5782,1.5782,1.5782,0,1.5311,1.5346,1.5371,1.5417,1.5429,1.5439,1.5479,1.5493,1.552,1.5543,1.5551,1.5594,1.5622,1.5659,1.5698,1.5717,1.5734,1.5746,1.5722,1.5727,1.5723,1.5722,1.5704,1.5704,1.5739,1.5739,1.5738,0,1.5298,1.531,1.5357,1.5371,1.5392,1.5415,1.5433,1.5472,1.5489,1.553,1.5538,1.5569,1.5595,1.5637,1.5673,1.5703,1.5715,1.5707,1.572,1.571,1.5715,1.5714,1.5716,1.5703,1.5703,1.5702,1.5702,0,1.5272,1.5289,1.5314,1.5345,1.5365,1.5391,1.5419,1.5429,1.5473,1.5492,1.552,1.554,1.558,1.561,1.5645,1.5668,1.5692,1.5697,1.5699,1.5688,1.5674,1.5682,1.5713,1.5698,1.5698,1.5698,1.5699,1.5699,1.5248,1.5259,1.5295,1.5321,1.5346,1.5371,1.5386,1.5415,1.5439,1.5474,1.5496,1.5523,1.5558,1.5607,1.5629,1.5652,1.5661,1.5663,1.5663,1.5663,1.566,1.5671,1.5658,1.5658,1.5658,1.5659,1.5659,0,1.5224,1.5248,1.5272,1.5309,1.533,1.5351,1.5382,1.5398,1.5422,1.5452,1.5477,1.551,1.5538,1.5576,1.5607,1.5618,1.563,1.5625,1.5625,1.5629,1.5649,1.5645,1.5615,1.5615,1.5615,1.5615,1.5615,1.5615,1.5213,1.5234,1.5255,1.5288,1.5313,1.534,1.5356,1.5379,1.5404,1.5438,1.5462,1.5486,1.5519,1.5553,1.5581,1.5591,1.5601,1.5593,1.5606,1.5624,1.5628,1.5632,1.5628,1.5594,1.5594,1.5585,1.5584,1.5584]},{"header":{"parameterUnit":"m.s-1","parameterCategory":1,"la1":30.2991,"la2":30.254,"lo1":-89.0895,"lo2":-89.0444,"dy":0.0017,"dx":0.0017,"nx":28,"ny":28,"refTime":"2025-07-20T09:00:00:Z","depth":0,"parameterNumber":3,"parameterNumberName":"V-component_of_WINDS"},"data":[0,0,0,0,0,0,0,0,0,0,0,0,0,0,0,0,0,0,0,0,0,0,0,0,0,0,0,0,0,0,0,0,0,0,0,0,0,0,0,0,0,0,0,0,0,0,0,0,0,0,0,0,0,0,0,0,0,0,0.1926,0.1926,0,0.188,0.1879,0.1878,0.1867,0.1867,0.1868,0.1868,0.1821,0.182,0.1818,0,0,0,0,0,0,0,0,0,0,0,0,0,0.2006,0.2005,0.1926,0.1926,0.1925,0.188,0.1879,0.1878,0.1867,0.1867,0.1868,0.1868,0.1822,0.182,0.1818,0,0,0,0,0,0,0,0,0,0,0,0,0,0.1967,0.2004,0.1926,0.1914,0.1912,0.188,0.1879,0.1878,0.1867,0.1867,0.1868,0.1868,0.1822,0.182,0.1818,0.1795,0,0,0.1811,0.181,0,0,0,0,0,0,0,0,0.1969,0.1964,0.1916,0.1915,0.1913,0.188,0.189,0.185,0.1867,0.1884,0.1868,0.1868,0.184,0.1837,0.1827,0.1793,0.1791,0.1811,0.1809,0.1808,0.1808,0,0,0,0,0,0,0,0.1972,0.1966,0.1908,0.1916,0.1914,0.1911,0.1906,0.1882,0.186,0.1883,0.1882,0.1876,0.184,0.1829,0.1826,0.179,0.1811,0.1809,0.1807,0.1806,0.1733,0.1733,0,0,0,0,0,0,0.1976,0.1968,0.1909,0.1906,0.1943,0.1909,0.1903,0.189,0.1861,0.1857,0.1876,0.1876,0.1833,0.1828,0.1824,0.1794,0.1808,0.1806,0.1805,0.1734,0.1733,0.1733,0,0,0,0,0,0,0.1978,0.1971,0.1911,0.1937,0.1929,0.1907,0.1892,0.1889,0.1878,0.1855,0.1852,0.1869,0.1833,0.1827,0.1802,0.1793,0.1805,0.1803,0.1735,0.1734,0.1733,0.1735,0,0,0,0,0,0,0.1981,0.1972,0.1963,0.1937,0.1928,0.189,0.1892,0.1887,0.1874,0.1874,0.1848,0.1844,0.1833,0.1805,0.18,0.179,0.1801,0.1735,0.1734,0.1733,0.1736,0.1734,0.1733,0,0,0,0,0,0.1983,0.1966,0.1963,0.1956,0.1916,0.1889,0.1884,0.1871,0.1874,0.1864,0.1849,0.1845,0.1795,0.1803,0.1796,0.1786,0.1736,0.1735,0.1733,0.1736,0.1735,0.1733,0,0,0,0,0,0,0.1992,0.1962,0.1958,0.1932,0.1913,0.1887,0.1875,0.1869,0.185,0.185,0.1835,0.1829,0.1805,0.1793,0.1802,0.1761,0.1765,0.1763,0.177,0.1768,0.1767,0.177,0.1799,0,0,0,0,0,0.1991,0.1971,0.1946,0.1925,0.1916,0.1897,0.1885,0.1876,0.1856,0.1849,0.1832,0.1813,0.1793,0.178,0.176,0.1734,0.1728,0.1724,0.1722,0.1721,0.1719,0.1704,0.1701,0.1729,0.1729,0.1729,0,0,0.1988,0.1969,0.1958,0.1926,0.1911,0.1891,0.1891,0.187,0.1855,0.1846,0.182,0.1807,0.1785,0.1759,0.1747,0.1749,0.171,0.172,0.1719,0.1717,0.1702,0.1699,0.1697,0.1728,0.1728,0.1728,0,0,0.1973,0.1957,0.1937,0.1921,0.1897,0.1885,0.188,0.1855,0.1846,0.182,0.1813,0.1795,0.1761,0.1745,0.1732,0.171,0.1706,0.1705,0.1698,0.1683,0.1681,0.1679,0.167,0.1667,0.1702,0.1702,0.1702,0,0.1972,0.1942,0.1928,0.1907,0.1893,0.1883,0.1863,0.1848,0.182,0.181,0.1812,0.1768,0.1753,0.1723,0.1717,0.1708,0.1702,0.1707,0.1682,0.168,0.1678,0.167,0.1666,0.1702,0.1702,0.1702,0.1702,0,0.1942,0.1921,0.1908,0.1879,0.1864,0.1844,0.1827,0.1813,0.1806,0.1793,0.1766,0.1747,0.1723,0.1716,0.1709,0.1684,0.1686,0.1685,0.1689,0.1675,0.1667,0.1664,0.1702,0.1702,0.1702,0.1702,0,0,0.1931,0.1894,0.1889,0.1876,0.1849,0.1832,0.1812,0.1787,0.1775,0.1756,0.1738,0.1709,0.1708,0.1694,0.1685,0.1672,0.1655,0.1673,0.1672,0.1669,0.1626,0.1625,0.1622,0.1652,0.1651,0.165,0.1627,0,0.1911,0.1873,0.1859,0.1828,0.1808,0.1798,0.178,0.1761,0.1748,0.173,0.1716,0.1695,0.1696,0.1688,0.1674,0.1659,0.1645,0.1661,0.1634,0.1633,0.1639,0.1618,0.1618,0.1597,0.1624,0.1623,0.1623,0,0.1883,0.1862,0.1829,0.1803,0.1794,0.1778,0.1754,0.1737,0.1715,0.1707,0.1691,0.1683,0.1661,0.1666,0.1635,0.1646,0.1634,0.1625,0.1624,0.162,0.1627,0.1613,0.159,0.1586,0.1618,0.1618,0.1619,0,0.1877,0.1841,0.1816,0.1805,0.1775,0.1763,0.175,0.1729,0.1715,0.1695,0.1686,0.1663,0.1651,0.1633,0.1619,0.1625,0.1589,0.1594,0.1582,0.1582,0.1574,0.1575,0.1548,0.1568,0.1568,0.1568,0.1568,0,0.1857,0.1836,0.1812,0.1797,0.1773,0.1758,0.1736,0.1722,0.1704,0.1685,0.1676,0.1659,0.1642,0.1623,0.1612,0.1587,0.1582,0.1575,0.1572,0.1575,0.1576,0.1566,0.1567,0.1567,0.1567,0.1567,0.1568,0,0.1846,0.1829,0.1801,0.1774,0.1767,0.1751,0.1729,0.1713,0.17,0.1677,0.1671,0.165,0.1627,0.1612,0.1582,0.1575,0.1548,0.1546,0.1555,0.1553,0.1542,0.1543,0.1508,0.1502,0.1527,0.1526,0.1526,0,0.1833,0.1817,0.1789,0.1775,0.1762,0.1741,0.1726,0.1711,0.1696,0.167,0.1658,0.1634,0.1614,0.1577,0.156,0.1538,0.1534,0.1524,0.1531,0.1534,0.1533,0.1534,0.1532,0.1522,0.1522,0.1522,0.1522,0,0.1812,0.1805,0.1784,0.176,0.1742,0.1723,0.1704,0.1693,0.1674,0.1658,0.1634,0.1619,0.1588,0.1564,0.154,0.1527,0.1521,0.152,0.1515,0.1518,0.1524,0.152,0.1551,0.152,0.1521,0.1521,0.1521,0.1521,0.18,0.1784,0.1762,0.1739,0.1722,0.1704,0.1688,0.1672,0.1652,0.1625,0.1618,0.1592,0.1571,0.1537,0.1524,0.1504,0.1505,0.1499,0.1498,0.1496,0.1496,0.1527,0.15,0.15,0.15,0.15,0.15,0,0.1778,0.1762,0.1741,0.1714,0.1695,0.1691,0.1669,0.1654,0.1632,0.1612,0.1592,0.1564,0.1541,0.1522,0.1498,0.1486,0.1482,0.148,0.148,0.1477,0.1497,0.1502,0.1483,0.1483,0.1483,0.1483,0.1483,0.1483,0.1764,0.1738,0.1727,0.1693,0.1678,0.1652,0.164,0.1623,0.1607,0.1576,0.1556,0.1544,0.1524,0.1499,0.1477,0.1472,0.1464,0.1462,0.1456,0.1474,0.1476,0.1478,0.1483,0.146,0.146,0.1438,0.1438,0.1438]}]]